Regional Weather Roundup
Issued by NWS

Home | Current Version | Previous Version | Graphics & Text | Print | Product List | Glossary Off
Versions: 1 2 3 4 5 6 7 8 9 10 11 12 13 14 15 16 17 18 19 20 21 22 23 24 25 26 27 28 29 30 31 32 33 34 35 36 37 38 39 40 41 42 43 44 45 46 47 48 49 50

000
ASUS43 KLSX 300510
RWRMO

WEATHER SUMMARY FOR MISSOURI
NATIONAL WEATHER SERVICE SPRINGFIELD MO
1200 AM CDT MON MAY 30 2016

NOTE: "FAIR" INDICATES FEW OR NO CLOUDS BELOW 12,000 FEET WITH NO
       SIGNIFICANT WEATHER AND/OR OBSTRUCTIONS TO VISIBILITY.
       CURRENT SKY AND/OR WEATHER CONDITIONS ARE NOT AVAILABLE FOR
       CHILLICOTHE AND FARMINGTON.

MOZ001>031-035>038-043-044-053-054-300600-
...NORTHERN AND WESTERN MISSOURI...

CITY           SKY/WX    TMP DP  RH WIND       PRES   REMARKS
KANSAS CTY INT CLOUDY    66  60  81 S8        30.05F
KANSAS C DTWN  CLOUDY    73  60  63 CALM      30.04S
LEE`S SUMMIT   CLOUDY    72  61  68 S8        30.05F
ST JOSEPH      CLOUDY    70  63  78 CALM      30.04F
CHILLICOTHE      N/A     68  63  84 CALM      30.04F
KIRKSVILLE     CLOUDY    68  61  78 SW5       30.05F

$$
MOZ066>068-077>081-088>096-101>105-300600-
...SOUTHWEST MISSOURI...

CITY           SKY/WX    TMP DP  RH WIND       PRES   REMARKS
SPRINGFIELD    CLEAR     69  62  78 SE7       30.09S
JOPLIN         CLOUDY    70  65  84 SE6       30.08S

$$
MOZ032>034-039>042-045>050-055>058-069>072-300600-
...CENTRAL MISSOURI...

CITY           SKY/WX    TMP DP  RH WIND       PRES   REMARKS
COLUMBIA       CLOUDY    71  64  78 S6        30.06F
JEFFERSON CITY CLOUDY    68  64  87 CALM      30.05F
ROLLA          CLEAR     65  61  87 S7        30.07F
SEDALIA        CLOUDY    69  64  84 S6        30.07F
WHITEMAN AFB   CLOUDY    69  65  88 S6        30.05F
WARRENSBURG    CLEAR     68  63  83 S3        30.05F

$$
MOZ051-052-059>065-300600-
...EAST CENTRAL MISSOURI...

CITY           SKY/WX    TMP DP  RH WIND       PRES   REMARKS
ST LOUIS INTL  CLOUDY    73  60  63 CALM      30.06S
SPIRIT OF STL  CLEAR     65  63  93 CALM      30.05S
ST CHARLES     CLEAR     69  66  90 CALM      30.04S

$$
MOZ072>076-082>087-097>100-106>115-300600-
...SOUTH CENTRAL AND SOUTHEAST MISSOURI...

CITY           SKY/WX    TMP DP  RH WIND       PRES   REMARKS
CAPE GIRARDEAU CLEAR     66  64  93 CALM      30.05S
FARMINGTON     CLEAR     64  64 100 CALM      30.09S
POPLAR BLUFF   CLEAR     71  67  87 CALM      30.06S
WEST PLAINS    CLOUDY    65  62  90 W3        30.12S

$$




USA.gov is the U.S. government's official web portal to all federal, state and local government web resources and services.